Buckeye, AZ

4:22 PM MST on May 23, 2018 (GMT -0700)
Buckeye Municipal

Weather History for KBXK - December, 2013

Change the Weather History Date:

Thursday, December 26, 2013

  Actual Average (KGYR) Record (KGYR)
Temperature  
Mean Temperature 52 °F -  
Max Temperature 68 °F 63 °F 77 °F (2005)
Min Temperature 37 °F 39 °F 30 °F (1997)
Degree Days  
Heating Degree Days 12    
Growing Degree Days 2 (Base 50)    
Moisture  
Dew Point 25 °F    
Average Humidity 39    
Maximum Humidity 70    
Minimum Humidity 14    
Precipitation  
Precipitation 0.00 in - - ()
Sea Level Pressure  
Sea Level Pressure 30.19 in    
Wind  
Wind Speed 6 mph (NNE)    
Max Wind Speed 15 mph    
Max Gust Speed 20 mph    
Visibility 10 miles    
Events      
Averages and records for this station are not official NWS values.
T = Trace of Precipitation, MM = Missing Value Source: NWS Daily Summary

Daily Weather History Graph

Daily Weather History Graph

Search for Another Location

Airport or City:

Astronomy

Dec. 26, 2013 Rise Set
Actual Time 7:33 AM MST 5:30 PM MST
Civil Twilight 7:05 AM MST 5:57 PM MST
Nautical Twilight 6:34 AM MST 6:28 PM MST
Astronomical Twilight 6:04 AM MST 6:58 PM MST
Moon 1:18 AM MST (12/26) 12:56 PM MST (12/26)
Length of Visible Light 10h 52m
Length of Day
9h 56m
Last Quarter, 38% of the Moon is Illuminated
Dec 26
Last Quarter
Jan 1
New
Jan 7
First Quarter
Jan 15
Full
Jan 23
Last Quarter

Hourly Weather History & Observations

Time (MST) Temp. Windchill Dew Point Humidity Pressure Visibility Wind Dir Wind Speed Gust Speed Precip Events Conditions
12:15 AM 46.4 °F 44.3 °F 26.6 °F 46% 30.22 in 10.0 mi East 4.6 mph - N/A   Clear
12:35 AM 44.6 °F 43.1 °F 26.6 °F 49% 30.22 in 10.0 mi SW 3.5 mph - N/A   Clear
12:55 AM 46.4 °F - 26.6 °F 46% 30.21 in 10.0 mi Calm Calm - N/A   Clear
1:15 AM 44.6 °F 42.2 °F 26.6 °F 49% 30.21 in 10.0 mi NW 4.6 mph - N/A   Clear
1:35 AM 42.8 °F 40.1 °F 28.4 °F 57% 30.21 in 10.0 mi SW 4.6 mph - N/A   Clear
1:55 AM 41.0 °F 39.0 °F 28.4 °F 61% 30.21 in 10.0 mi North 3.5 mph - N/A   Clear
2:15 AM 41.0 °F - 26.6 °F 57% 30.22 in 10.0 mi Calm Calm - N/A   Clear
2:35 AM 39.2 °F - 28.4 °F 65% 30.21 in 10.0 mi Calm Calm - N/A   Clear
2:55 AM 39.2 °F 35.9 °F 28.4 °F 65% 30.21 in 10.0 mi NW 4.6 mph - N/A   Clear
3:15 AM 41.0 °F 39.0 °F 26.6 °F 57% 30.21 in 10.0 mi NNW 3.5 mph - N/A   Clear
3:35 AM 41.0 °F 37.1 °F 26.6 °F 57% 30.22 in 10.0 mi NW 5.8 mph - N/A   Clear
3:55 AM 41.0 °F 35.2 °F 26.6 °F 57% 30.22 in 10.0 mi NNW 9.2 mph - N/A   Clear
4:15 AM 39.2 °F 33.6 °F 26.6 °F 61% 30.22 in 10.0 mi NNW 8.1 mph - N/A   Clear
4:35 AM 39.2 °F - 28.4 °F 65% 30.22 in 10.0 mi Calm Calm - N/A   Clear
4:55 AM 39.2 °F 37.0 °F 28.4 °F 65% 30.22 in 10.0 mi NW 3.5 mph - N/A   Clear
5:15 AM 39.2 °F 33.6 °F 26.6 °F 61% 30.22 in 10.0 mi NNW 8.1 mph - N/A   Clear
5:35 AM 39.2 °F 34.2 °F 26.6 °F 61% 30.22 in 10.0 mi NNW 6.9 mph - N/A   Clear
5:55 AM 39.2 °F 35.0 °F 28.4 °F 65% 30.22 in 10.0 mi NNW 5.8 mph - N/A   Clear
6:15 AM 39.2 °F 35.9 °F 26.6 °F 61% 30.22 in 10.0 mi NW 4.6 mph - N/A   Clear
6:35 AM 37.4 °F 32.1 °F 28.4 °F 70% 30.23 in 10.0 mi NW 6.9 mph - N/A   Clear
6:55 AM 39.2 °F 35.9 °F 26.6 °F 61% 30.22 in 10.0 mi NNW 4.6 mph - N/A   Clear
7:15 AM 39.2 °F 35.0 °F 26.6 °F 61% 30.22 in 10.0 mi NW 5.8 mph - N/A   Clear
7:35 AM 37.4 °F 31.4 °F 26.6 °F 65% 30.23 in 10.0 mi NW 8.1 mph - N/A   Clear
7:55 AM 39.2 °F 37.0 °F 26.6 °F 61% 30.23 in 10.0 mi NNW 3.5 mph - N/A   Clear
8:15 AM 53.6 °F - 15.8 °F 22% 30.23 in 10.0 mi NNE 9.2 mph - N/A   Clear
8:35 AM 57.2 °F - 17.6 °F 21% 30.24 in 10.0 mi ENE 15.0 mph 19.6 mph N/A   Clear
8:55 AM 55.4 °F - 23.0 °F 29% 30.24 in 10.0 mi East 9.2 mph - N/A   Clear
9:15 AM 59.0 °F - 15.8 °F 19% 30.25 in 10.0 mi ENE 13.8 mph 18.4 mph N/A   Clear
9:35 AM 59.0 °F - 17.6 °F 20% 30.26 in 10.0 mi ENE 10.4 mph - N/A   Clear
9:55 AM 60.8 °F - 15.8 °F 17% 30.26 in 10.0 mi ENE 10.4 mph - N/A   Clear
10:15 AM 62.6 °F - 15.8 °F 16% 30.26 in 10.0 mi ENE 11.5 mph - N/A   Clear
10:35 AM 62.6 °F - 17.6 °F 18% 30.26 in 10.0 mi North 5.8 mph - N/A   Clear
10:55 AM 62.6 °F - 23.0 °F 22% 30.26 in 10.0 mi Calm Calm - N/A   Clear
11:15 AM 62.6 °F - 19.4 °F 19% 30.26 in 10.0 mi East 9.2 mph - N/A   Clear
11:35 AM 62.6 °F - 24.8 °F 24% 30.25 in 10.0 mi East 9.2 mph - N/A   Clear
11:55 AM 64.4 °F - 17.6 °F 16% 30.24 in 10.0 mi ENE 10.4 mph - N/A   Clear
12:15 PM 64.4 °F - 17.6 °F 16% 30.22 in 10.0 mi ENE 12.7 mph 18.4 mph N/A   Clear
12:35 PM 66.2 °F - 15.8 °F 14% 30.20 in 10.0 mi ENE 12.7 mph - N/A   Clear
12:55 PM 66.2 °F - 15.8 °F 14% 30.19 in 10.0 mi East 12.7 mph 16.1 mph N/A   Clear
1:15 PM 66.2 °F - 15.8 °F 14% 30.18 in 10.0 mi East 13.8 mph 18.4 mph N/A   Clear
1:35 PM 66.2 °F - 17.6 °F 15% 30.17 in 10.0 mi East 13.8 mph 18.4 mph N/A   Clear
1:55 PM 66.2 °F - 17.6 °F 15% 30.16 in 10.0 mi ESE 10.4 mph - N/A   Clear
2:15 PM 66.2 °F - 21.2 °F 18% 30.16 in 10.0 mi ESE 9.2 mph - N/A   Clear
2:35 PM 68.0 °F - 17.6 °F 15% 30.15 in 10.0 mi East 11.5 mph - N/A   Clear
2:55 PM 68.0 °F - 17.6 °F 15% 30.15 in 10.0 mi East 6.9 mph - N/A   Clear
3:15 PM 68.0 °F - 19.4 °F 16% 30.14 in 10.0 mi East 9.2 mph - N/A   Clear
3:35 PM 68.0 °F - 21.2 °F 17% 30.14 in 10.0 mi East 8.1 mph - N/A   Clear
3:55 PM 68.0 °F - 23.0 °F 18% 30.14 in 10.0 mi ESE 5.8 mph - N/A   Clear
4:15 PM 66.2 °F - 23.0 °F 19% 30.14 in 10.0 mi East 3.5 mph - N/A   Clear
4:35 PM 66.2 °F - 23.0 °F 19% 30.14 in 10.0 mi Calm Calm - N/A   Clear
4:55 PM 66.2 °F - 26.6 °F 23% 30.14 in 10.0 mi Calm Calm - N/A   Clear
5:15 PM 66.2 °F - 23.0 °F 19% 30.14 in 10.0 mi Calm Calm - N/A   Clear
5:35 PM 62.6 °F - 26.6 °F 26% 30.14 in 10.0 mi Calm Calm - N/A   Clear
5:55 PM 59.0 °F - 26.6 °F 29% 30.14 in 10.0 mi SW 3.5 mph - N/A   Clear
6:15 PM 57.2 °F - 26.6 °F 31% 30.14 in 10.0 mi Calm Calm - N/A   Clear
6:35 PM 55.4 °F - 28.4 °F 36% 30.14 in 10.0 mi Calm Calm - N/A   Clear
6:55 PM 53.6 °F - 28.4 °F 38% 30.14 in 10.0 mi WNW 8.1 mph - N/A   Clear
7:15 PM 51.8 °F - 28.4 °F 41% 30.15 in 10.0 mi NNW 5.8 mph - N/A   Clear
7:35 PM 51.8 °F - 30.2 °F 44% 30.15 in 10.0 mi NW 8.1 mph - N/A   Clear
7:55 PM 50.0 °F - 30.2 °F 47% 30.15 in 10.0 mi NNW 9.2 mph - N/A   Clear
8:15 PM 48.2 °F - 30.2 °F 50% 30.16 in 10.0 mi NNW 9.2 mph - N/A   Clear
8:35 PM 48.2 °F - 30.2 °F 50% 30.15 in 10.0 mi NNW 8.1 mph - N/A   Clear
8:55 PM 46.4 °F 42.4 °F 30.2 °F 53% 30.16 in 10.0 mi North 8.1 mph - N/A   Clear
9:15 PM 46.4 °F 42.4 °F 30.2 °F 53% 30.16 in 10.0 mi North 8.1 mph - N/A   Clear
9:35 PM 46.4 °F 42.4 °F 30.2 °F 53% 30.16 in 10.0 mi NNW 8.1 mph - N/A   Clear
9:55 PM 46.4 °F 41.1 °F 30.2 °F 53% 30.17 in 10.0 mi North 11.5 mph - N/A   Clear
10:15 PM 46.4 °F 42.4 °F 28.4 °F 50% 30.18 in 10.0 mi North 8.1 mph - N/A   Clear
10:35 PM 46.4 °F 44.3 °F 28.4 °F 50% 30.18 in 10.0 mi NNE 4.6 mph - N/A   Clear
10:55 PM 46.4 °F 42.4 °F 26.6 °F 46% 30.18 in 10.0 mi NE 8.1 mph - N/A   Clear
11:15 PM 46.4 °F 44.3 °F 26.6 °F 46% 30.18 in 10.0 mi NE 4.6 mph - N/A   Clear
11:35 PM 44.6 °F 43.1 °F 26.6 °F 49% 30.18 in 10.0 mi NNE 3.5 mph - N/A   Clear
11:55 PM 44.6 °F 41.4 °F 28.4 °F 53% 30.19 in 10.0 mi North 5.8 mph - N/A   Clear